Regional Weather Roundup
Issued by NWS

Home | Current Version | Previous Version | Text Only | Print | Product List | Glossary On
Versions: 1 2 3 4 5 6 7 8 9 10 11 12 13 14 15 16 17 18 19 20 21 22 23 24 25 26 27 28 29 30 31 32 33 34 35 36 37 38 39 40 41 42 43 44 45 46 47 48 49 50
000
ASUS46 KSTO 281709
RWRCA

NORTHERN AND CENTRAL CA REGIONAL WEATHER ROUNDUP
NATIONAL WEATHER SERVICE SACRAMENTO CA
1000 AM PDT WED JUN 28 2017

NOTE: FAIR INDICATES FEW OR NO CLOUDS BELOW 12,000 FEET WITH NO
SIGNIFICANT WEATHER AND/OR OBSTRUCTIONS TO VISIBILITY.

CAZ001-003-281800-
NORTHWEST AREA

CITY           SKY/WX    TMP DP  RH WIND       PRES   REMARKS
CRESCENT CITY  CLOUDY    54  53  97 NW5       30.02R
ARCATA         NOT AVBL
SHELTER COVE   NOT AVBL
UKIAH          SUNNY     72  53  51 E5        29.90F
$$

CAZ006-505>513-281800-
BAY AREA

CITY           SKY/WX    TMP DP  RH WIND       PRES   REMARKS
SANTA ROSA     CLOUDY    59  53  80 VRB5      29.93S
SAN RAFAEL     N/A       59  MM  MM MISG
NAPA           CLOUDY    63  54  72 SW12      29.94S
CONCORD        SUNNY     66  54  65 S16       29.92F
OAKLAND CITY   N/A      MM  MM  MM MISG
OAKLAND        CLOUDY    62  55  77 W12       29.97S
SAN FRAN CITY  N/A       56  MM  90 MISG
SAN FRAN ARPT  PTSUNNY   59  52  77 W12       29.96S
LIVERMORE      SUNNY     65  53  65 W7        29.93F
HAYWARD        PTSUNNY   63  51  65 W5        29.96S
REDWOOD CITY   N/A       62  MM  70 MISG
MOFFETT ARPT   SUNNY     67  55  65 N8        29.96S
SAN JOSE ARPT  MOSUNNY   67  54  63 CALM      29.95F
$$
CAZ034-037-514>518-281800-
CENTRAL COAST

CITY           SKY/WX    TMP DP  RH WIND       PRES   REMARKS
WATSONVILLE    CLOUDY    58  56  93 VRB3      29.98S
SALINAS        CLOUDY    60  52  74 W7        29.97F
MONTEREY       CLOUDY    57  53  86 W8        29.98F
PT PIEDRAS BLS NOT AVBL
SAN LUIS OBISP MOSUNNY   63  53  70 VRB6      29.93F
SANTA MARIA    CLOUDY    57  55  93 SW6       29.95S FOG
$$
CAZ015-016-281800-
NORTHERN SACRAMENTO VALLEY

CITY           SKY/WX    TMP DP  RH WIND       PRES   REMARKS
REDDING        SUNNY     82  53  36 VRB5      29.88S
RED BLUFF      SUNNY     78  58  49 VRB3      29.89S
OROVILLE       SUNNY     73  57  57 S5        29.91S
$$
CAZ016>018-281800-
SOUTHERN SACRAMENTO VALLEY

CITY           SKY/WX    TMP DP  RH WIND       PRES   REMARKS
AUBURN         SUNNY     75  55  50 SW5       29.93S
BEALE AFB      SUNNY     73  55  53 CALM      29.88S
LINCOLN        FAIR      73  50  43 S7        29.89S
MARYSVILLE     SUNNY     71  55  56 VRB3      29.90S
SAC INTL ARPT  SUNNY     68  56  65 VRB5      29.89S
MATHER AIRPORT NOT AVBL
DOWNTOWN SAC   N/A       70  MM  MM MISG
SAC EXEC ARPT  SUNNY     68  57  68 VRB7      29.90S
VACAVILLE      SUNNY     72  56  57 S3        29.91S
TRAVIS AFB     SUNNY     66  54  63 SW18      29.89S
$$
CAZ019>021-281800-
SAN JOAQUIN VALLEY

CITY           SKY/WX    TMP DP  RH WIND       PRES   REMARKS
STOCKTON       SUNNY     73  54  51 W7        29.90S
MODESTO        SUNNY     74  52  46 NW7       29.89F
MERCED         SUNNY     74  51  44 N8        29.89S
LEMOORE        SUNNY     78  52  40 NW7       29.89F
FRESNO         SUNNY     78  54  43 W5        29.89S
HANFORD        SUNNY     79  52  38 NW7       29.90S
PORTERVILLE      N/A     78  58  49 W6        29.90F
BAKERSFIELD    SUNNY     80  56  43 CALM      29.89F
$$
CAZ011-012-071-281800-
NORTHERN MOUNTAINS

CITY           SKY/WX    TMP DP  RH WIND       PRES   REMARKS
YREKA          SUNNY     73  47  39 VRB3      30.00F
MOUNT SHASTA   SUNNY     72  53  51 VRB5      30.01S
ALTURAS        SUNNY     72  40  31 W7        30.03F
$$
CAZ011-012-071-281800-
SIERRA NEVADA MTNS

CITY           SKY/WX    TMP DP  RH WIND       PRES   REMARKS
BLUE CANYON    SUNNY     67  33  28 S8        30.12R
TRUCKEE        NOT AVBL
TAHOE VLY ARPT SUNNY     68  29  23 VRB6      30.13F
MAMMOTH LAKES  FAIR      74   4   6 SW6       30.16F
$$



USA.gov is the U.S. government's official web portal to all federal, state and local government web resources and services.